Regional Weather Roundup
Issued by NWS

Home | Current Version | Previous Version | Text Only | Print | Product List | Glossary On
Versions: 1 2 3 4 5 6 7 8 9 10 11 12 13 14 15 16 17 18 19 20 21 22 23 24 25 26 27 28 29 30 31 32 33 34 35 36 37 38 39 40 41 42 43 44 45 46 47 48 49 50
000
ASUS45 KCYS 070110
RWRWY

WYOMING REGIONAL WEATHER ROUNDUP
NATIONAL WEATHER SERVICE CHEYENNE WY
700 PM MDT FRI MAY 06 2016

NOTE:  "FAIR" INDICATES FEW OR NO CLOUDS BELOW 12,000 FEET
WITH NO SIGNIFICANT WEATHER AND/OR OBSTRUCTIONS TO VISIBILITY.

WYZ001-070200-
YELLOWSTONE NATIONAL PARK

CITY           SKY/WX    TMP DP  RH WIND       PRES   REMARKS
LK YELLOWSTONE   N/A     49  35  58 VRB5      30.13R
W YELLOWSTONE  NOT AVBL

$$
WYZ002>013-054>058-071-098>099-070200-
NORTHERN WYOMING

CITY           SKY/WX    TMP DP  RH WIND       PRES   REMARKS
JACKSON        PTSUNNY   52  45  76 N13G22    30.01F
CODY           CLOUDY    52  41  66 N21G28    30.11F
GREYBULL       CLOUDY    69  41  36 NW23      29.97R
WORLAND        PTSUNNY   61  44  53 NW28G35   30.00R
SHERIDAN       CLOUDY    58  46  64 W8        30.13S
BUFFALO        CLOUDY    57  43  59 NW18G28   30.14S
GILLETTE       PTSUNNY   62  45  53 N21       30.08R
HULETT         CLOUDY    64  45  48 NE12G18   30.09R
NEWCASTLE      FAIR      63  41  45 NE22G38   29.98F

$$
WYZ014>020-022>026-101>103-070200-
CENTRAL WYOMING

CITY           SKY/WX    TMP DP  RH WIND       PRES   REMARKS
BIG PINEY      LGT RAIN  53  41  63 NE15      29.96S
PINEDALE       CLOUDY    54  36  50 E6        29.95F
DUBOIS         CLOUDY    48  41  76 E6        30.07F
LANDER         CLOUDY    54  45  71 W7        30.02F HAZE
RIVERTON       LGT RAIN  57  42  57 N18G24    30.02F
CASPER         RAIN      53  47  79 NE29G37   30.03F
DOUGLAS        LGT RAIN  54  51  90 N8        30.04S VSB<1/4

$$
WYZ021-027>030-104>119-070200-
SOUTHERN WYOMING

CITY           SKY/WX    TMP DP  RH WIND       PRES   REMARKS
EVANSTON       RAIN      44  37  76 SW13      29.97F
KEMMERER       RAIN      41  39  93 N13       29.99F
FORT BRIDGER   RAIN      43  43 100 NW9       29.97R
ROCK SPRINGS   NOT AVBL
DIXON          FAIR      63  33  32 E21G32    29.91F
RAWLINS        FAIR      53  44  71 NE26G36   30.00F
SARATOGA       CLOUDY    52  43  71 N8        30.01R
LARAMIE        LGT RAIN  59  42  53 NE18G29   29.96F
CHEYENNE       FAIR      62  39  42 E13       29.93F
TORRINGTON     FAIR      68  49  50 NE32G39   29.87F
PINE BLUFFS    MOCLDY    68  36  30 N10       29.89F

$$



USA.gov is the U.S. government's official web portal to all federal, state and local government web resources and services.